Regional Weather Roundup
Issued by NWS

Home | Current Version | Previous Version | Text Only | Print | Product List | Glossary Off
Versions: 1 2 3 4 5 6 7 8 9 10 11 12 13 14 15 16 17 18 19 20 21 22 23 24 25 26 27 28

000
ASUS45 KCYS 251710
RWRWY

WYOMING REGIONAL WEATHER ROUNDUP
NATIONAL WEATHER SERVICE CHEYENNE WY
1100 AM MDT TUE JUL 25 2017

NOTE:  "FAIR" INDICATES FEW OR NO CLOUDS BELOW 12,000 FEET
WITH NO SIGNIFICANT WEATHER AND/OR OBSTRUCTIONS TO VISIBILITY.

WYZ001-251800-
YELLOWSTONE NATIONAL PARK

CITY           SKY/WX    TMP DP  RH WIND       PRES   REMARKS
LK YELLOWSTONE   N/A     57  52  83 SE3       30.35R
W YELLOWSTONE  NOT AVBL

$$
WYZ002>013-054>058-071-098>099-251800-
NORTHERN WYOMING

CITY           SKY/WX    TMP DP  RH WIND       PRES   REMARKS
JACKSON        CLOUDY    64  48  55 CALM      30.25S
CODY           FAIR      62  43  49 NE14      30.18S
GREYBULL       FAIR      73  44  35 NW20G25   30.08R
WORLAND        FAIR      74  47  38 N14       30.09R
SHERIDAN       FAIR      72  46  39 NW15      30.13R
BUFFALO        FAIR      73  45  36 N18G24    30.17R
GILLETTE       FAIR      80  49  33 N13       30.08R
HULETT         FAIR      82  50  32 NE8G16    30.08R
NEWCASTLE      FAIR      84  45  24 SW5       30.03R

$$
WYZ014>020-022>026-101>103-251800-
CENTRAL WYOMING

CITY           SKY/WX    TMP DP  RH WIND       PRES   REMARKS
BIG PINEY      PTSUNNY   70  46  42 NE13      30.26R
PINEDALE       LGT RAIN  63  46  55 MISG      30.29R
DUBOIS         PTSUNNY   70  36  28 NW9       30.26F
LANDER         PTSUNNY   72  45  37 SE3       30.15S
RIVERTON       FAIR      73  44  35 S3        30.15S
CASPER         PTSUNNY   77  46  33 VRB7      30.15R
DOUGLAS        FAIR      80  48  32 NW16      30.09R

$$
WYZ021-027>030-104>119-251800-
SOUTHERN WYOMING

CITY           SKY/WX    TMP DP  RH WIND       PRES   REMARKS
EVANSTON       LGT RAIN  60  57  89 CALM      30.30R
KEMMERER         N/A     64  46  52 W12       30.29R
FORT BRIDGER   CLOUDY    64  55  71 W13       30.30F
ROCK SPRINGS   CLOUDY    68  50  52 SE7       30.26R
RAWLINS        PTSUNNY   69  50  50 SW16      30.27R
SARATOGA       FAIR      72  50  46 E5        30.29R
LARAMIE        FAIR      73  46  38 NW6       30.27R
CHEYENNE       FAIR      83  48  29 NW12      30.16R
TORRINGTON     FAIR      85  52  32 W8        30.01R
PINE BLUFFS    FAIR      88  45  22 N12       30.08S

$$




USA.gov is the U.S. government's official web portal to all federal, state and local government web resources and services.